Location: Rounton
(54.4000°N, 1.3500°W)
Time: 09:09:25
(UTC+01:00)

A-11 Canister half - Pass Details

Date: 28 June 2022
Orbit: 1525 x 1683 km, 47.3° (Epoch: 16 August)

Event Time Altitude Azimuth Distance (km) Brightness Sun altitude
Rises 01:55:52 0° 283° (WNW) 4,685 11.6 -11.7°
Reaches altitude 10° 02:00:11 10° 266° (W) 3,694 10.8 -11.5°
Maximum altitude 02:05:43 18° 229° (SW) 3,127 10.2 -11.3°
Enters shadow 02:09:42 13° 200° (SSW) 3,438 10.2 -11.2°
